Location: *
(35.8942°N, 23.3025°E)
Time: 21:13:18
(UTC+00:00)

ISS - Pass Details

Date: 06 December 2022
Orbit: 412 x 423 km, 51.6° (Epoch: 07 February)

Event Time Altitude Azimuth Distance (km) Brightness Sun altitude
Rises 17:32:47 0° 294° (WNW) 2,347 0.9 -27.7°
Reaches altitude 10° 17:35:26 10° 271° (W) 1,485 0.0 -28.2°
Enters shadow 17:37:29 16° 233° (SW) 1,177 -0.9 -28.6°
